Hourly Data Report for May 02, 2012

All times are specified in Local Standard Time (LST). Add 1 hour to adjust for Daylight Saving Time where and when it is observed.

SAULT STE MARIE A
ONTARIO

46°29'06.000" N
84°30'35.000" W
192.00 m
6057591
71260
YAM

Related Data

No related data is available for this station

Download Data

Hourly Data (May 2012)
Hourly Data Report for May 2, 2012
Temp Definition
°C
Dew Point Temp Definition
°C
Rel Hum Definition
%
Wind Dir Definition
10's deg

Wind Spd Definition
km/h
Visibility Definition
km
Stn Press Definition
kPa
Hmdx Definition


Wind Chill Definition


Weather Definition


TIME
00:00 Legend Double Dagger 9.1 5.3 77 10 15 10.0 99.08     LegendNANA
01:00 Legend Double Dagger 7.7 5.4 85 10 17 10.0 99.05     Mostly Cloudy
02:00 Legend Double Dagger 7.2 5.5 89 9 14 10.0 99.04     LegendNANA
03:00 Legend Double Dagger 6.7 5.7 93 9 13 10.0 99.03     LegendNANA
04:00 Legend Double Dagger 5.9 5.5 97 9 15 10.0 98.95     Mostly Cloudy
05:00 Legend Double Dagger 6.1 6.0 99 10 17 8.1 98.91     Fog
06:00 Legend Double Dagger 7.1 7.1 100 10 19 4.8 98.93     Fog
07:00 Legend Double Dagger 7.6 7.5 99 11 26 6.4 98.90     Fog
08:00 Legend Double Dagger 8.1 7.4 95 10 18 10.0 98.82     LegendNANA
09:00 Legend Double Dagger 8.7 7.3 91 9 20 10.0 98.79     LegendNANA
10:00 Legend Double Dagger 10.3 7.6 83 11 21 10.0 98.71     Cloudy
11:00 Legend Double Dagger 10.2 7.3 82 11 23 10.0 98.65     Drizzle
12:00 Legend Double Dagger 10.8 7.5 80 10 19 10.0 98.60     LegendNANA
13:00 Legend Double Dagger 9.5 8.9 96 10 10 6.4 98.69     Rain,Fog
14:00 Legend Double Dagger 9.4 9.0 97 11 12 4.8 98.69     Rain,Fog
15:00 Legend Double Dagger 9.1 9.1 100 8 15 2.4 98.70     Rain,Fog
16:00 Legend Double Dagger 9.3 9.6 102 9 8 2.0 98.76     Fog
17:00 Legend Double Dagger 9.4 9.7 102 5 12 2.0 98.82     Fog
18:00 Legend Double Dagger 9.5 9.7 101 8 10 3.2 98.88     Fog
19:00 Legend Double Dagger 9.5 9.7 101 10 7 2.4 98.97     Fog
20:00 Legend Double Dagger 9.0 9.4 103 8 11 1.0 99.00     Fog
21:00 Legend Double Dagger 8.6 9.2 104 7 12 0.8 99.04     Fog
22:00 Legend Double Dagger 8.9 9.5 104 10 4 1.2 99.16     Fog
23:00 Legend Double Dagger 8.9 8.9 100 8 8 0.8 99.20     Fog

Notes on Data Quality.

Legend

  • E = Estimated
  • M = Missing
  • NA = Not Available
  • ‡ = Partner data that is not subject to review by the National Climate Archives
Date modified: